EW7937 Weather Reports


Display with metric or nautical units.
time (UTC)temp
F
wind
direction
speed
MPH
gust
MPH
rain 1hr
in
rain 24hr
in
rain mn
in
humidity
%
barometer
mb
20260831231534 95 205 0.0 0.0 0.00 0.00 0.00 23 1009.7
20260831231032 95 205 0.0 0.0 0.00 0.00 0.00 23 1009.7
20260831230532 95 205 0.0 0.0 0.00 0.00 0.00 23 1009.8
20260831230305 96 205 0.0 5.0 0.00 0.00 0.00 23 1009.8
20260831225533 96 205 0.0 5.0 0.00 0.00 0.00 23 1009.8
20260831225033 96 222 0.0 0.0 0.00 0.00 0.00 24 1009.9
20260831224534 96 222 0.0 0.0 0.00 0.00 0.00 24 1010.0
20260831224032 96 222 0.0 0.0 0.00 0.00 0.00 24 1010.1
20260831223532 96 222 0.0 0.0 0.00 0.00 0.00 24 1010.1
20260831223032 96 222 0.0 0.0 0.00 0.00 0.00 23 1010.2
20260831222824 96 222 0.0 0.0 0.00 0.00 0.00 23 1010.2
20260831222033 96 222 0.0 0.0 0.00 0.00 0.00 24 1010.3
20260831221532 96 222 0.0 0.0 0.00 0.00 0.00 23 1010.3
20260831221318 96 222 0.0 0.0 0.00 0.00 0.00 24 1010.4
20260831220533 96 222 0.0 0.0 0.00 0.00 0.00 23 1010.4
20260831220315 96 222 0.0 0.0 0.00 0.00 0.00 22 1010.5
20260831215532 96 222 0.0 0.0 0.00 0.00 0.00 24 1010.6
20260831215033 95 222 0.0 1.0 0.00 0.00 0.00 24 1010.7
20260831214534 95 222 0.0 1.0 0.00 0.00 0.00 25 1010.8
20260831214018 95 270 0.0 0.0 0.00 0.00 0.00 24 1010.8
20260831213513 94 270 0.0 0.0 0.00 0.00 0.00 27 1010.9
20260831213009 94 270 0.0 0.0 0.00 0.00 0.00 25 1011.0
20260831212505 94 270 0.0 0.0 0.00 0.00 0.00 24 1011.0
20260831212003 94 270 0.0 0.0 0.00 0.00 0.00 25 1011.1
20260831211504 94 270 0.0 0.0 0.00 0.00 0.00 26 1011.1
20260831211004 94 270 0.0 0.0 0.00 0.00 0.00 25 1011.2
20260831210504 93 270 0.0 0.0 0.00 0.00 0.00 26 1011.2
20260831210004 93 270 0.0 0.0 0.00 0.00 0.00 25 1011.1
20260831205503 93 270 0.0 0.0 0.00 0.00 0.00 26 1011.2
20260831205002 93 270 0.0 0.0 0.00 0.00 0.00 25 1011.2
20260831204503 93 270 0.0 0.0 0.00 0.00 0.00 26 1011.3
20260831204006 93 270 0.0 0.0 0.00 0.00 0.00 26 1011.4
20260831203750 93 270 0.0 3.0 0.00 0.00 0.00 26 1011.4
20260831203005 92 270 0.0 3.0 0.00 0.00 0.00 27 1011.5
20260831202748 92 202 0.0 0.0 0.00 0.00 0.00 29 1011.4
20260831202003 92 202 0.0 0.0 0.00 0.00 0.00 28 1011.4
20260831201746 92 202 0.0 0.0 0.00 0.00 0.00 29 1011.6
20260831201005 92 202 0.0 0.0 0.00 0.00 0.00 28 1011.7
20260831200504 92 202 0.0 0.0 0.00 0.00 0.00 30 1011.8
20260831200004 92 202 0.0 0.0 0.00 0.00 0.00 28 1011.8
20260831195502 92 202 0.0 0.0 0.00 0.00 0.00 31 1011.8
20260831195256 91 202 0.0 0.0 0.00 0.00 0.00 31 1011.8
20260831194751 90 202 0.0 0.0 0.00 0.00 0.00 33 1011.9
20260831194004 90 202 0.0 0.0 0.00 0.00 0.00 36 1012.0
20260831193504 90 202 0.0 0.0 0.00 0.00 0.00 31 1012.0
20260831193242 89 202 0.0 0.0 0.00 0.00 0.00 33 1012.1
20260831192503 89 202 0.0 0.0 0.00 0.00 0.00 33 1012.1
20260831192002 89 202 0.0 0.0 0.00 0.00 0.00 34 1012.2
20260831191501 89 202 0.0 0.0 0.00 0.00 0.00 34 1012.3
20260831191236 89 202 0.0 0.0 0.00 0.00 0.00 35 1012.2
20260831190504 89 202 0.0 0.0 0.00 0.00 0.00 35 1012.3
20260831190005 88 202 0.0 0.0 0.00 0.00 0.00 35 1012.2
20260831185505 88 202 0.0 0.0 0.00 0.00 0.00 37 1012.3
20260831185312 87 202 0.0 0.0 0.00 0.00 0.00 38 1012.3
20260831185307 87 202 0.0 0.0 0.00 0.00 0.00 35 1012.3
20260831184005 87 202 0.0 0.0 0.00 0.00 0.00 36 1012.3
20260831183747 86 202 0.0 0.0 0.00 0.00 0.00 36 1012.4
20260831183235 86 202 0.0 0.0 0.00 0.00 0.00 36 1012.3
20260831182752 87 202 0.0 0.0 0.00 0.00 0.00 36 1012.4
20260831182003 86 202 0.0 0.0 0.00 0.00 0.00 39 1012.4
20260831181505 86 202 0.0 0.0 0.00 0.00 0.00 36 1012.3
20260831181005 85 202 0.0 0.0 0.00 0.00 0.00 37 1012.4
20260831180506 85 202 0.0 0.0 0.00 0.00 0.00 38 1012.3
20260831180002 85 202 0.0 0.0 0.00 0.00 0.00 39 1012.3
20260831175500 84 202 0.0 0.0 0.00 0.00 0.00 40 1012.3
20260831174959 84 202 0.0 0.0 0.00 0.00 0.00 39 1012.3
20260831174742 84 202 0.0 2.0 0.00 0.00 0.00 40 1012.4
20260831173953 83 202 0.0 2.0 0.00 0.00 0.00 40 1012.3
20260831173453 83 202 0.0 0.0 0.00 0.00 0.00 41 1012.4
20260831173224 83 202 0.0 0.0 0.00 0.00 0.00 41 1012.3
20260831172447 82 202 0.0 0.0 0.00 0.00 0.00 42 1012.3
20260831171935 82 202 0.0 0.0 0.00 0.00 0.00 43 1012.3
20260831171434 81 202 0.0 0.0 0.00 0.00 0.00 43 1012.3
20260831170933 81 202 0.0 0.0 0.00 0.00 0.00 43 1012.3
20260831170431 80 202 0.0 0.0 0.00 0.00 0.00 42 1012.2
20260831170212 80 202 0.0 0.0 0.00 0.00 0.00 45 1012.2
20260831165432 80 202 0.0 0.0 0.00 0.00 0.00 45 1012.2
20260831164933 79 202 0.0 0.0 0.00 0.00 0.00 46 1012.1
20260831164716 79 202 0.0 0.0 0.00 0.00 0.00 45 1012.1
20260831163933 78 202 0.0 0.0 0.00 0.00 0.00 46 1012.0
20260831163434 78 202 0.0 0.0 0.00 0.00 0.00 45 1012.0
20260831162933 78 202 0.0 0.0 0.00 0.00 0.00 47 1012.1
20260831162433 77 202 0.0 0.0 0.00 0.00 0.00 47 1012.1
20260831162215 77 202 0.0 0.0 0.00 0.00 0.00 48 1012.0
20260831161432 76 202 0.0 0.0 0.00 0.00 0.00 48 1012.2
20260831160931 76 202 0.0 2.0 0.00 0.00 0.00 48 1012.2
20260831160433 76 202 0.0 2.0 0.00 0.00 0.00 50 1012.1
20260831155932 75 202 0.0 2.0 0.00 0.00 0.00 50 1012.1
20260831155434 74 298 0.0 0.0 0.00 0.00 0.00 51 1012.0
20260831155214 74 298 0.0 0.0 0.00 0.00 0.00 51 1011.9
20260831154432 73 298 0.0 0.0 0.00 0.00 0.00 53 1011.9
20260831153931 72 298 0.0 0.0 0.00 0.00 0.00 54 1011.9
20260831153431 71 298 0.0 0.0 0.00 0.00 0.00 56 1011.8
20260831153225 70 298 0.0 0.0 0.00 0.00 0.00 57 1011.9
20260831152432 69 298 0.0 0.0 0.00 0.00 0.00 59 1011.9
20260831151931 68 298 0.0 0.0 0.00 0.00 0.00 60 1011.9
20260831151430 67 298 0.0 0.0 0.00 0.00 0.00 63 1011.9
20260831150931 66 298 0.0 0.0 0.00 0.00 0.00 64 1011.9
20260831150432 65 298 0.0 0.0 0.00 0.00 0.00 67 1011.8
20260831145932 64 298 0.0 0.0 0.00 0.00 0.00 67 1011.8
20260831145432 64 298 0.0 0.0 0.00 0.00 0.00 68 1011.8
20260831144931 64 298 0.0 0.0 0.00 0.00 0.00 69 1011.8
20260831144431 63 298 0.0 0.0 0.00 0.00 0.00 70 1011.7
20260831143931 63 298 0.0 0.0 0.00 0.00 0.00 70 1011.7
20260831143431 63 298 0.0 0.0 0.00 0.00 0.00 70 1011.7
20260831142934 63 298 0.0 0.0 0.00 0.00 0.00 70 1011.7
20260831142431 62 298 0.0 0.0 0.00 0.00 0.00 70 1011.6
20260831141932 62 298 0.0 0.0 0.00 0.00 0.00 70 1011.6
20260831141704 62 298 0.0 0.0 0.00 0.00 0.00 70 1011.3
20260831140931 62 298 0.0 0.0 0.00 0.00 0.00 69 1011.2
20260831140433 62 298 0.0 0.0 0.00 0.00 0.00 70 1011.2
20260831135932 62 298 0.0 0.0 0.00 0.00 0.00 71 1011.1
20260831135431 62 298 0.0 0.0 0.00 0.00 0.00 71 1011.1
20260831134934 61 298 0.0 0.0 0.00 0.00 0.00 71 1010.9
20260831134431 61 298 0.0 0.0 0.00 0.00 0.00 71 1011.0
20260831133933 62 298 0.0 0.0 0.00 0.00 0.00 71 1011.0
20260831133714 62 298 0.0 0.0 0.00 0.00 0.00 72 1010.9
20260831132932 62 298 0.0 0.0 0.00 0.00 0.00 72 1010.9
20260831132432 62 298 0.0 0.0 0.00 0.00 0.00 72 1010.8
20260831131930 62 298 0.0 0.0 0.00 0.00 0.00 72 1010.8
20260831131432 62 298 0.0 0.0 0.00 0.00 0.00 71 1010.9
20260831131214 62 298 0.0 0.0 0.00 0.00 0.00 71 1010.8
20260831130434 62 298 0.0 0.0 0.00 0.00 0.00 70 1010.8
20260831125933 62 298 0.0 0.0 0.00 0.00 0.00 69 1010.8
20260831125432 62 298 0.0 0.0 0.00 0.00 0.00 69 1010.8
20260831124931 62 298 0.0 0.0 0.00 0.00 0.00 68 1010.8
20260831124432 63 298 0.0 0.0 0.00 0.00 0.00 68 1010.8
20260831123931 63 298 0.0 0.0 0.00 0.00 0.00 67 1010.8
20260831123433 63 298 0.0 0.0 0.00 0.00 0.00 66 1010.7
20260831123217 63 298 0.0 0.0 0.00 0.00 0.00 66 1010.7
20260831122800 64 298 0.0 0.0 0.00 0.00 0.00 65 1010.6
20260831122452 63 298 0.0 0.0 0.00 0.00 0.00 65 1010.7
20260831121431 64 298 0.0 0.0 0.00 0.00 0.00 65 1010.5
20260831121216 64 298 0.0 0.0 0.00 0.00 0.00 65 1010.6
20260831120519 64 298 0.0 0.0 0.00 0.00 0.00 65 1010.6
20260831120457 64 298 0.0 0.0 0.00 0.00 0.00 66 1010.6
20260831115712 64 298 0.0 0.0 0.00 0.00 0.00 65 1010.6
20260831114932 64 298 0.0 0.0 0.00 0.00 0.00 65 1010.6
20260831114433 64 298 0.0 0.0 0.00 0.00 0.00 64 1010.6
20260831113931 64 298 0.0 0.0 0.00 0.00 0.00 65 1010.6
20260831113431 64 298 0.0 0.0 0.00 0.00 0.00 64 1010.6
20260831112931 65 298 0.0 0.0 0.00 0.00 0.00 64 1010.6
20260831112433 65 298 0.0 0.0 0.00 0.00 0.00 64 1010.6
20260831111935 65 298 0.0 0.0 0.00 0.00 0.00 63 1010.6
20260831111506 65 298 0.0 0.0 0.00 0.00 0.00 63 1010.6
20260831111451 65 298 0.0 0.0 0.00 0.00 0.00 63 1010.6
20260831110434 65 298 0.0 0.0 0.00 0.00 0.00 62 1010.6
20260831105934 66 298 0.0 0.0 0.00 0.00 0.00 62 1010.5
20260831105432 66 298 0.0 0.0 0.00 0.00 0.00 61 1010.6
20260831104920 66 298 0.0 0.0 0.00 0.00 0.00 61 1010.6
20260831104418 66 298 0.0 0.0 0.00 0.00 0.00 61 1010.7
20260831103915 66 298 0.0 0.0 0.00 0.00 0.00 60 1010.6
20260831103411 66 298 0.0 0.0 0.00 0.00 0.00 60 1010.6
20260831102904 67 298 0.0 0.0 0.00 0.00 0.00 60 1010.4
20260831102404 67 298 0.0 0.0 0.00 0.00 0.00 59 1010.4
20260831101904 67 298 0.0 0.0 0.00 0.00 0.00 59 1010.4
20260831101404 67 298 0.0 0.0 0.00 0.00 0.00 59 1010.4
20260831100903 67 298 0.0 0.0 0.00 0.00 0.00 58 1010.4
20260831100433 68 298 0.0 0.0 0.00 0.00 0.00 58 1010.4
20260831100420 67 298 0.0 0.0 0.00 0.00 0.00 58 1010.4
20260831095402 68 298 0.0 0.0 0.00 0.00 0.00 57 1010.4
20260831094903 68 298 0.0 0.0 0.00 0.00 0.00 56 1010.4
20260831094404 68 298 0.0 0.0 0.00 0.00 0.00 56 1010.3
20260831093859 68 298 0.0 1.0 0.00 0.00 0.00 56 1010.1
20260831093353 69 298 0.0 7.0 0.00 0.00 0.00 56 1010.2
20260831092852 69 290 0.0 7.0 0.00 0.00 0.00 55 1010.2
20260831092347 69 294 0.0 1.0 0.00 0.00 0.00 55 1010.2
20260831091849 69 300 0.0 1.0 0.00 0.00 0.00 55 1010.2
20260831091347 69 321 0.0 0.0 0.00 0.00 0.00 55 1010.1
20260831090845 69 321 0.0 0.0 0.00 0.00 0.00 55 1010.2
20260831090336 69 321 0.0 0.0 0.00 0.00 0.00 55 1010.2
20260831085833 69 321 0.0 0.0 0.00 0.00 0.00 54 1010.1
20260831085333 70 321 0.0 1.0 0.00 0.00 0.00 54 1010.1
20260831084833 70 321 0.0 4.0 0.00 0.00 0.00 53 1010.1
20260831084332 70 307 0.0 4.0 0.00 0.00 0.00 53 1010.2
20260831084118 70 309 0.0 0.0 0.00 0.00 0.00 53 1010.2
20260831083333 70 309 0.0 2.0 0.00 0.00 0.00 52 1010.2
20260831082833 70 309 0.0 2.0 0.00 0.00 0.00 52 1010.2
20260831082332 71 309 0.0 0.0 0.00 0.00 0.00 52 1010.2
20260831082116 71 309 0.0 0.0 0.00 0.00 0.00 51 1010.3
20260831081332 71 309 0.0 0.0 0.00 0.00 0.00 51 1010.3
20260831081121 71 309 0.0 0.0 0.00 0.00 0.00 50 1010.3
20260831080334 71 309 0.0 0.0 0.00 0.00 0.00 50 1010.2
20260831075833 72 309 0.0 0.0 0.00 0.00 0.00 49 1010.2
20260831075334 72 309 0.0 0.0 0.00 0.00 0.00 49 1010.3
20260831074833 72 309 0.0 1.0 0.00 0.00 0.00 48 1010.4
20260831074333 72 309 0.0 1.0 0.00 0.00 0.00 48 1010.3
20260831073833 73 306 0.0 0.0 0.00 0.00 0.00 47 1010.3
20260831073329 73 306 0.0 0.0 0.00 0.00 0.00 47 1010.3
20260831072829 73 306 0.0 0.0 0.00 0.00 0.00 46 1010.3
20260831072329 73 306 0.0 0.0 0.00 0.00 0.00 45 1010.2
20260831071826 73 306 0.0 0.0 0.00 0.00 0.00 44 1010.2
20260831071320 74 306 0.0 0.0 0.00 0.00 0.00 44 1010.3
20260831070821 74 306 0.0 0.0 0.00 0.00 0.00 44 1010.2
20260831070427 74 306 0.0 0.0 0.00 0.00 0.00 42 1010.3
20260831070420 75 306 0.0 0.0 0.00 0.00 0.00 42 1010.3
20260831070357 74 306 0.0 0.0 0.00 0.00 0.00 43 1010.2
20260831064807 75 306 0.0 0.0 0.00 0.00 0.00 41 1010.2
20260831064305 75 306 0.0 0.0 0.00 0.00 0.00 41 1010.2
20260831063803 76 306 0.0 0.0 0.00 0.00 0.00 40 1010.1
20260831063304 76 306 0.0 0.0 0.00 0.00 0.00 39 1010.1
20260831062801 76 306 0.0 0.0 0.00 0.00 0.00 38 1010.1
20260831062305 76 306 0.0 0.0 0.00 0.00 0.00 37 1010.1
20260831062051 76 306 0.0 0.0 0.00 0.00 0.00 37 1010.2
20260831061303 77 306 0.0 0.0 0.00 0.00 0.00 36 1010.2
20260831060804 77 306 0.0 0.0 0.00 0.00 0.00 36 1010.2
20260831060304 77 306 0.0 0.0 0.00 0.00 0.00 36 1010.2
20260831055801 78 306 0.0 0.0 0.00 0.00 0.00 36 1010.2
20260831055306 78 306 0.0 0.0 0.00 0.00 0.00 35 1010.1
20260831054803 78 306 0.0 0.0 0.00 0.00 0.00 35 1010.1
20260831054547 78 306 0.0 0.0 0.00 0.00 0.00 35 1010.1
20260831053758 78 306 0.0 0.0 0.00 0.00 0.00 34 1010.1
20260831053333 79 306 0.0 0.0 0.00 0.00 0.00 34 1010.1
20260831053319 78 306 0.0 0.0 0.00 0.00 0.00 34 1010.1
20260831052250 79 306 0.0 0.0 0.00 0.00 0.00 34 1010.1
20260831052026 79 306 0.0 0.0 0.00 0.00 0.00 34 1010.2
20260831051241 79 306 0.0 0.0 0.00 0.00 0.00 34 1010.2
20260831050733 80 306 0.0 0.0 0.00 0.00 0.00 34 1010.1
20260831050233 80 306 0.0 0.0 0.00 0.00 0.00 34 1010.1
20260831045733 80 306 0.0 0.0 0.00 0.00 0.00 33 1010.1
20260831045233 80 306 0.0 0.0 0.00 0.00 0.00 33 1010.2
20260831044729 81 306 0.0 0.0 0.00 0.00 0.00 33 1010.1
20260831044224 81 306 0.0 0.0 0.00 0.00 0.00 33 1010.1
20260831043719 81 306 0.0 4.0 0.00 0.00 0.00 33 1010.1
20260831043213 81 306 0.0 4.0 0.00 0.00 0.00 32 1010.1
20260831042708 81 282 0.0 0.0 0.00 0.00 0.00 32 1009.9
20260831042442 82 282 0.0 0.0 0.00 0.00 0.00 32 1009.8
20260831041703 82 282 0.0 0.0 0.00 0.00 0.00 33 1009.8
20260831041439 82 282 0.0 0.0 0.00 0.00 0.00 32 1009.8
20260831040703 82 282 0.0 0.0 0.00 0.00 0.00 33 1009.7
20260831040205 82 282 0.0 0.0 0.00 0.00 0.00 33 1009.7
20260831035702 83 282 0.0 0.0 0.00 0.00 0.00 33 1009.7
20260831035202 83 282 0.0 0.0 0.00 0.00 0.00 33 1009.7
20260831034704 83 282 0.0 0.0 0.00 0.00 0.00 34 1009.6
20260831034205 83 282 0.0 0.0 0.00 0.00 0.00 34 1009.6
20260831033948 84 282 0.0 0.0 0.00 0.00 0.00 33 1009.6
20260831033204 84 282 0.0 0.0 0.00 0.00 0.00 34 1009.5
20260831032704 85 282 0.0 0.0 0.00 0.00 0.00 35 1009.5
20260831032441 85 282 0.0 0.0 0.00 0.00 0.00 34 1009.5
20260831031703 85 282 0.0 0.0 0.00 0.00 0.00 33 1009.4
20260831031446 85 282 0.0 0.0 0.00 0.00 0.00 33 1009.4
20260831030703 86 282 0.0 0.0 0.00 0.00 0.00 33 1009.2
20260831030450 86 282 0.0 0.0 0.00 0.00 0.00 32 1009.1
20260831025703 86 282 0.0 0.0 0.00 0.00 0.00 32 1009.1
20260831025203 87 282 0.0 0.0 0.00 0.00 0.00 33 1009.1
20260831024703 87 282 0.0 0.0 0.00 0.00 0.00 32 1009.1
20260831024203 87 282 0.0 0.0 0.00 0.00 0.00 32 1009.0
20260831023703 87 282 0.0 0.0 0.00 0.00 0.00 33 1009.0
20260831023201 88 282 0.0 0.0 0.00 0.00 0.00 33 1008.9
20260831022720 89 282 0.0 0.0 0.00 0.00 0.00 32 1008.9
20260831022709 88 282 0.0 0.0 0.00 0.00 0.00 32 1008.9
20260831021704 89 282 0.0 0.0 0.00 0.00 0.00 32 1008.9
20260831021203 90 282 0.0 0.0 0.00 0.00 0.00 31 1008.8
20260831020703 90 282 0.0 0.0 0.00 0.00 0.00 30 1008.9
20260831020203 90 282 0.0 0.0 0.00 0.00 0.00 30 1008.8
20260831015703 91 282 0.0 0.0 0.00 0.00 0.00 30 1008.8
20260831015205 91 282 0.0 0.0 0.00 0.00 0.00 29 1008.8
20260831014705 92 282 0.0 0.0 0.00 0.00 0.00 29 1008.9
20260831014446 92 282 0.0 0.0 0.00 0.00 0.00 29 1008.8
20260831013705 92 282 0.0 0.0 0.00 0.00 0.00 29 1008.8
20260831013205 93 282 0.0 0.0 0.00 0.00 0.00 28 1008.9
20260831012702 93 282 0.0 0.0 0.00 0.00 0.00 28 1008.9
20260831012204 93 282 0.0 0.0 0.00 0.00 0.00 28 1008.9
20260831011704 94 282 0.0 0.0 0.00 0.00 0.00 28 1008.9
20260831011206 94 282 0.0 0.0 0.00 0.00 0.00 28 1009.1
20260831010702 94 282 0.0 0.0 0.00 0.00 0.00 27 1009.0
20260831010204 94 282 0.0 0.0 0.00 0.00 0.00 27 1009.0
20260831005704 95 282 0.0 0.0 0.00 0.00 0.00 27 1009.1
20260831005203 95 282 0.0 0.0 0.00 0.00 0.00 26 1009.1
20260831004704 95 282 0.0 0.0 0.00 0.00 0.00 27 1009.2
20260831004202 95 282 0.0 0.0 0.00 0.00 0.00 27 1009.2
20260831003704 95 282 0.0 0.0 0.00 0.00 0.00 28 1009.3
20260831003201 95 282 0.0 0.0 0.00 0.00 0.00 25 1009.2
20260831002657 95 282 0.0 0.0 0.00 0.00 0.00 27 1009.2
20260831002153 95 282 0.0 0.0 0.00 0.00 0.00 25 1009.3
20260831001649 95 282 0.0 0.0 0.00 0.00 0.00 26 1009.3
20260831001142 96 282 0.0 0.0 0.00 0.00 0.00 26 1009.3
20260831000640 96 282 0.0 0.0 0.00 0.00 0.00 24 1009.3
20260831000139 96 282 0.0 0.0 0.00 0.00 0.00 26 1009.4
20260830235640 96 282 0.0 0.0 0.00 0.00 0.00 26 1009.4
20260830235136 96 282 0.0 0.0 0.00 0.00 0.00 25 1009.4
20260830234635 96 282 0.0 0.0 0.00 0.00 0.00 25 1009.4
20260830234134 97 282 0.0 0.0 0.00 0.00 0.00 24 1009.4
20260830233632 97 282 0.0 0.0 0.00 0.00 0.00 25 1009.4
20260830233133 97 282 0.0 0.0 0.00 0.00 0.00 24 1009.4
20260830232912 97 282 0.0 0.0 0.00 0.00 0.00 25 1009.5
20260830232132 97 282 0.0 0.0 0.00 0.00 0.00 24 1009.5
20260830231634 97 282 0.0 0.0 0.00 0.00 0.00 24 1009.5